Terug naar catalogus

FENGYUN 1C DEB

ActiefSSO
NORAD 31311·DEBRIS·🇨🇳 China

Gelanceerd May 10, 1999 vanaf Taiyuan Satellite Launch Center

Loading…

Volgende Passages (komende 24 uur)

TLE

VersSource: Space-Track

Epoch: Sep 14, 2026, 05:11 UTC

1 31311U 99025BPP 26257.21629646  .00002229  00000-0  85066-3 0  9995
2 31311  98.8447 348.4030 0016848 359.8222  29.5210 14.31756981  1589

Volg FENGYUN 1C DEB in realtime met AllMySat

Download on the App Store